AirNav   Everest Fuels
 
 719 users online  

SC45 Gilbert International Airpark
Gilbert, South Carolina, USA

GOING TO GILBERT?


FAA INFORMATION EFFECTIVE 07 NOVEMBER 2019

Location

FAA Identifier: SC45
Lat/Long: 33-53-02.5270N 081-22-54.3660W
33-53.042117N 081-22.906100W
33.8840353,-81.3817683
(estimated)
Elevation: 551 ft. / 168 m (estimated)
Variation: 04W (1985)
From city: 2 miles S of GILBERT, SC
Time zone: UTC -5 (UTC -4 during Daylight Saving Time)
Zip code: 29054

Airport Operations

Airport use: Private use. Permission required prior to landing
Activation date: 11/1990
Control tower: no
ARTCC: JACKSONVILLE CENTER
FSS: ANDERSON FLIGHT SERVICE STATION
Attendance: UNATNDD
Wind indicator: yes
Segmented circle: no
Lights: ACTVT MIRL RY 09/27 - 122.85

Airport Communications

WX ASOS at CAE (13 nm E): PHONE 803-822-4168
WX ASOS at CUB (20 nm E): 118.675 (803-929-0665)

Nearby radio navigation aids

VOR radial/distance  VOR name  Freq  Var
CAEr278/16.4COLUMBIA VORTAC114.7002W
MMTr273/29.0MC ENTIRE VORTAC113.2008W

 
NDB name  Hdg/Dist  Freq  Var  ID
MURRY241/8.436207WCA -.-. .-
AIKEN053/20.334706WAIK .- .. -.-
ENOREE161/28.627807WEOE . --- .
EMORY055/39.838504WEMR . -- .-.

Airport Services

Runway Information

Runway 9/27

Dimensions: 3000 x 75 ft. / 914 x 23 m
Surface: turf, in fair condition
Runway edge lights: low intensity
RUNWAY 9  RUNWAY 27
Traffic pattern: leftleft
Obstructions: 50 ft. trees, 300 ft. from runway50 ft. trees, 50 ft. from runway

Airport Ownership and Management from official FAA records

Ownership: Privately-owned
Owner: GILBERT INT'L AIRPARK HO ASSOC.
231 UPWIND LEG RD
GILBERT, SC 29054-8555
Phone 803-657-8262
CONTACT PERSONS: MR. PHIL LUMPKIN/803-657-7797 OR MR. DAVID HARDY/803-657-7108.
Manager: DAVID HARDY, ASSOCIATION PRESIDENT
376 DOWNWIND LEE RD
GILBERT, SC 29054
Phone 803-463-7662

Airport Operational Statistics

Aircraft based on the field: 17
Single engine airplanes: 16
Multi engine airplanes: 1
    

Additional Remarks

LIGHTED PORTION OF RWY IS 2400 FT; 300FT OVER RUN EACH END.
FOR CD CTC COLUMBIA APCH AT 803-822-5242 OR 803-822-5040.

Instrument Procedures

There are no published instrument procedures at SC45.

Some nearby airports with instrument procedures:

6J0 - Lexington County Airport (9 nm SE)
KCAE - Columbia Metropolitan Airport (13 nm E)
KCUB - Jim Hamilton L B Owens Airport (20 nm E)
KAIK - Aiken Regional Airport (21 nm SW)
6J4 - Saluda County Airport (21 nm W)
 
Loc | Ops | Rwys | IFR | FBO | Links
Com | Nav | Svcs | Stats | Notes
Area around SC45 (Gilbert International Airpark)
 
Road maps at: MapQuest Bing Google
 
Aerial photo
WARNING: Photo may not be current or correct
Aerial photo of SC45 (Gilbert International Airpark)
Taken in the Summer of 2009

Do you have a better or more recent aerial photo of Gilbert International Airpark that you would like to share? If so, please send us your photo.

 
Sectional chart

 
Airport distance calculator
Flying to Gilbert International Airpark? Find the distance to fly.

From to SC45

Sunrise and sunset
Times for 11-Nov-2019
 Local
(UTC-5)
 Zulu
(UTC)
Morning civil twilight06:2911:29
Sunrise06:5511:55
Sunset17:2422:24
Evening civil twilight17:5022:50

Current date and time
Zulu (UTC)  12-Nov-2019 04:00:40
Local (UTC-5)  11-Nov-2019 23:00:40
 
METAR
KCAE 
14nm E 
120256Z 00000KT 10SM SCT200 09/06 A3005 RMK AO2 SLP175 T00940056 58004
KCUB 
20nm E 
120353Z AUTO 00000KT 10SM CLR 11/07 A3004 RMK AO2 SLP172 T01110067
KAIK 
21nm SW 
120355Z AUTO 17005KT 10SM CLR 11/06 A3007 RMK AO2
KXNO 
22nm SE 
120256Z AUTO 00000KT 10SM SCT180 SCT240 09/05 A3007 RMK AO2 SLP186 T00910053 55004 $
TAF
KCAE 
14nm E 
112201Z 1122/1218 22010KT P6SM SCT250 FM120200 21005KT P6SM BKN100 FM120900 23006KT P6SM VCSH BKN035 OVC100 FM121400 32010G16KT 5SM SHRA OVC012 TEMPO 1215/1218 3SM SHRA OVC008
KCUB 
20nm E 
112201Z 1122/1218 21008KT P6SM SCT250 FM120200 21005KT P6SM BKN100 FM120900 23006KT P6SM VCSH BKN035 OVC100 FM121400 32010G16KT 5SM SHRA OVC012 TEMPO 1215/1218 3SM SHRA OVC008
NOTAMs
Click for the latest NOTAMs
NOTAMs are issued by the DoD/FAA and will open in a separate window not controlled by AirNav.

 

 
 

Would you like to see your business listed on this page?

 If your business provides an interesting product or service to pilots, flight crews, aircraft, or users of the Gilbert International Airpark, you should consider listing it here.  To start the listing process, click on the button below
 
Add a business
 

Other Pages about Gilbert International Airpark

Update a link
 
Copyright © AirNav, LLC. All rights reserved. Privacy Policy  Contact